When you browse on this site, cookies collect data to enhance your experience and personalize the content and advertising you see.
Visit our Privacy Policy to learn more. By continuing to use the site, you agree to this use of cookies and data.
  • In Sweden
  • List of Countries
  • For 7 days
  • Water Temperature
  • Satellite Maps
  • Weather Map
  • Weather Widgets
  • user-avatar
    Login

    Hourly Weather Taniborz

    Today, 10 December, Monday

    Time Temperature Precipitation Wind Pressure Humidity
    00:00 +4°C° 0.5 mm 7 mps 740 mmHg 80%
    01:00 +4°C° 0 mm 7 mps 740 mmHg 79%
    02:00 +4°C° 0.3 mm 8 mps 740 mmHg 77%
    03:00 +2°C° 0.3 mm 8 mps 741 mmHg 76%
    04:00 +2°C° 0.3 mm 8 mps 742 mmHg 75%
    05:00 +2°C° 0.1 mm 8 mps 742 mmHg 75%
    06:00 +2°C° 0.1 mm 8 mps 743 mmHg 75%
    07:00 +2°C° 0 mm 7 mps 744 mmHg 75%
    08:00 +2°C° 0 mm 7 mps 745 mmHg 75%
    09:00 +1°C° 0 mm 8 mps 745 mmHg 74%
    10:00 +1°C° 0 mm 8 mps 746 mmHg 74%
    11:00 +1°C° 0.1 mm 8 mps 746 mmHg 72%
    12:00 +2°C° 0.1 mm 8 mps 746 mmHg 71%
    13:00 +2°C° 0.1 mm 8 mps 747 mmHg 70%
    14:00 +3°C° 0.1 mm 7 mps 747 mmHg 70%
    15:00 +2°C° 0.1 mm 6 mps 747 mmHg 71%
    16:00 +2°C° 0.1 mm 6 mps 747 mmHg 72%
    17:00 +2°C° 0 mm 6 mps 747 mmHg 73%
    18:00 +1°C° 0 mm 6 mps 747 mmHg 74%
    19:00 +1°C° 0 mm 6 mps 747 mmHg 76%
    20:00 +1°C° 0 mm 6 mps 747 mmHg 77%
    21:00 0°C° 0 mm 5 mps 747 mmHg 78%
    22:00 0°C° 0 mm 5 mps 747 mmHg 80%
    23:00 0°C° 0 mm 5 mps 747 mmHg 81%

    Tomorrow, 11 December, Tuesday

    Time Temperature Precipitation Wind Pressure Humidity
    00:00 0°C° 0 mm 5 mps 747 mmHg 83%
    01:00 0°C° 0 mm 5 mps 747 mmHg 84%
    02:00 0°C° 0.2 mm 5 mps 747 mmHg 84%
    03:00 0°C° 0.2 mm 5 mps 747 mmHg 84%
    04:00 0°C° 0.2 mm 5 mps 747 mmHg 84%
    05:00 0°C° 0.3 mm 5 mps 746 mmHg 84%
    06:00 +1°C° 0.3 mm 4 mps 746 mmHg 84%
    07:00 +1°C° 0.3 mm 4 mps 746 mmHg 85%
    08:00 +1°C° 0.3 mm 4 mps 747 mmHg 86%
    09:00 +1°C° 0.3 mm 4 mps 747 mmHg 87%
    10:00 +1°C° 0.3 mm 4 mps 747 mmHg 88%
    11:00 +1°C° 0.2 mm 4 mps 748 mmHg 87%
    12:00 +1°C° 0.2 mm 4 mps 748 mmHg 86%
    13:00 +1°C° 0.2 mm 4 mps 748 mmHg 85%
    14:00 +2°C° 0.1 mm 3 mps 749 mmHg 86%
    15:00 +2°C° 0.1 mm 3 mps 749 mmHg 88%
    16:00 +2°C° 0.1 mm 3 mps 750 mmHg 89%
    17:00 +1°C° 0.1 mm 3 mps 750 mmHg 91%
    18:00 +1°C° 0.1 mm 3 mps 751 mmHg 92%
    19:00 +1°C° 0.1 mm 3 mps 751 mmHg 93%
    20:00 +1°C° 0 mm 3 mps 752 mmHg 93%
    21:00 0°C° 0 mm 4 mps 752 mmHg 93%
    22:00 -1°C° 0 mm 4 mps 753 mmHg 93%
    23:00 -1°C° 0.1 mm 4 mps 753 mmHg 93%

    Day after tomorrow, 12 December, Wednesday

    Time Temperature Precipitation Wind Pressure Humidity
    00:00 -1°C° 0.1 mm 4 mps 753 mmHg 93%
    01:00 -1°C° 0.1 mm 4 mps 754 mmHg 93%
    02:00 -1°C° 0.2 mm 4 mps 754 mmHg 93%
    03:00 -2°C° 0.2 mm 4 mps 754 mmHg 93%
    04:00 -2°C° 0.2 mm 4 mps 755 mmHg 92%
    05:00 -1°C° 0.1 mm 3 mps 755 mmHg 92%
    06:00 -1°C° 0.1 mm 3 mps 755 mmHg 92%
    07:00 -2°C° 0.1 mm 3 mps 756 mmHg 92%
    08:00 -2°C° 0 mm 3 mps 756 mmHg 90%
    09:00 -1°C° 0 mm 3 mps 757 mmHg 88%
    10:00 -1°C° 0 mm 2 mps 757 mmHg 86%
    11:00 -1°C° 0 mm 2 mps 757 mmHg 84%
    12:00 +1°C° 0 mm 2 mps 757 mmHg 82%
    13:00 +1°C° 0 mm 2 mps 757 mmHg 80%
    14:00 +1°C° 0 mm 2 mps 757 mmHg 82%
    15:00 -1°C° 0 mm 2 mps 757 mmHg 85%
    16:00 -2°C° 0 mm 2 mps 757 mmHg 87%
    17:00 0°C° 0 mm 1 mps 758 mmHg 88%
    18:00 0°C° 0 mm 1 mps 758 mmHg 88%
    19:00 0°C° 0 mm 1 mps 758 mmHg 89%
    20:00 0°C° 0 mm 1 mps 758 mmHg 89%
    21:00 0°C° 0 mm 1 mps 758 mmHg 90%
    22:00 0°C° 0 mm 1 mps 758 mmHg 90%
    23:00 0°C° 0 mm 1 mps 758 mmHg 91%

    13 December, Thursday

    Time Temperature Precipitation Wind Pressure Humidity
    00:00 0°C° 0 mm 1 mps 758 mmHg 92%
    01:00 -2°C° 0 mm 2 mps 758 mmHg 92%
    02:00 -2°C° 0 mm 2 mps 758 mmHg 92%
    03:00 -2°C° 0 mm 2 mps 758 mmHg 91%
    04:00 -2°C° 0 mm 2 mps 758 mmHg 91%
    05:00 -1°C° 0 mm 2 mps 757 mmHg 90%
    06:00 -1°C° 0 mm 2 mps 757 mmHg 89%
    07:00 -1°C° 0 mm 2 mps 757 mmHg 88%
    08:00 -1°C° 0 mm 2 mps 757 mmHg 87%
    09:00 -1°C° 0 mm 3 mps 757 mmHg 86%
    10:00 -1°C° 0 mm 3 mps 757 mmHg 85%
    11:00 -1°C° 0 mm 3 mps 757 mmHg 83%
    12:00 0°C° 0 mm 3 mps 756 mmHg 81%
    13:00 0°C° 0 mm 3 mps 756 mmHg 79%
    14:00 +1°C° 0 mm 2 mps 756 mmHg 80%
    15:00 -1°C° 0 mm 2 mps 756 mmHg 81%
    16:00 -1°C° 0 mm 2 mps 756 mmHg 83%
    17:00 -1°C° 0 mm 2 mps 756 mmHg 83%
    18:00 -1°C° 0 mm 2 mps 756 mmHg 84%
    19:00 -1°C° 0 mm 2 mps 756 mmHg 84%
    20:00 +1°C° 0 mm 1 mps 757 mmHg 85%
    21:00 0°C° 0 mm 1 mps 757 mmHg 86%
    22:00 0°C° 0 mm 1 mps 757 mmHg 87%
    23:00 0°C° 0 mm 1 mps 757 mmHg 88%

    14 December, Friday

    Time Temperature Precipitation Wind Pressure Humidity
    00:00 0°C° 0 mm 1 mps 757 mmHg 90%
    01:00 0°C° 0 mm 1 mps 758 mmHg 91%
    02:00 0°C° 0 mm 1 mps 758 mmHg 91%
    03:00 0°C° 0 mm 1 mps 758 mmHg 92%
    04:00 0°C° 0 mm 1 mps 758 mmHg 93%
    05:00 -1°C° 0 mm 1 mps 759 mmHg 93%
    06:00 -1°C° 0 mm 1 mps 759 mmHg 94%
    07:00 -1°C° 0 mm 1 mps 759 mmHg 94%
    08:00 0°C° 0 mm 1 mps 760 mmHg 93%
    09:00 -2°C° 0 mm 2 mps 760 mmHg 91%
    10:00 -1°C° 0 mm 2 mps 761 mmHg 90%
    11:00 -1°C° 0 mm 2 mps 761 mmHg 89%
    12:00 -1°C° 0 mm 2 mps 761 mmHg 88%
    13:00 +1°C° 0 mm 2 mps 762 mmHg 87%
    14:00 -1°C° 0 mm 2 mps 762 mmHg 88%
    15:00 -1°C° 0 mm 2 mps 762 mmHg 90%
    16:00 -1°C° 0 mm 2 mps 762 mmHg 91%
    17:00 -1°C° 0 mm 2 mps 763 mmHg 91%
    18:00 -1°C° 0 mm 2 mps 763 mmHg 90%
    19:00 -1°C° 0 mm 2 mps 764 mmHg 90%
    20:00 -1°C° 0 mm 2 mps 764 mmHg 89%
    21:00 -1°C° 0 mm 2 mps 764 mmHg 88%
    22:00 -1°C° 0 mm 2 mps 764 mmHg 88%
    23:00 -1°C° 0 mm 2 mps 765 mmHg 87%

    15 December, Saturday

    Time Temperature Precipitation Wind Pressure Humidity
    00:00 -1°C° 0 mm 2 mps 765 mmHg 87%
    01:00 +1°C° 0 mm 1 mps 765 mmHg 87%
    02:00 +1°C° 0 mm 1 mps 765 mmHg 87%
    03:00 +1°C° 0 mm 1 mps 765 mmHg 86%
    04:00 -1°C° 0 mm 2 mps 765 mmHg 86%
    05:00 -1°C° 0 mm 2 mps 766 mmHg 86%
    06:00 -1°C° 0 mm 2 mps 766 mmHg 87%
    07:00 -2°C° 0 mm 2 mps 766 mmHg 87%
    08:00 -1°C° 0 mm 2 mps 766 mmHg 86%
    09:00 -1°C° 0 mm 2 mps 767 mmHg 85%
    10:00 -1°C° 0 mm 3 mps 767 mmHg 84%
    11:00 0°C° 0 mm 3 mps 767 mmHg 83%
    12:00 +1°C° 0 mm 2 mps 767 mmHg 81%
    13:00 +1°C° 0 mm 2 mps 767 mmHg 80%
    14:00 +1°C° 0 mm 2 mps 767 mmHg 83%
    15:00 -1°C° 0 mm 3 mps 767 mmHg 86%
    16:00 -2°C° 0 mm 3 mps 767 mmHg 88%
    17:00 -2°C° 0 mm 3 mps 767 mmHg 89%
    18:00 -2°C° 0 mm 3 mps 767 mmHg 90%
    19:00 -2°C° 0 mm 3 mps 767 mmHg 90%
    20:00 -2°C° 0 mm 3 mps 767 mmHg 90%
    21:00 -2°C° 0 mm 3 mps 767 mmHg 90%
    22:00 -4°C° 0 mm 3 mps 767 mmHg 90%
    23:00 -4°C° 0 mm 4 mps 767 mmHg 90%
    Show more